Ephrata, WA

5:18 PM PDT on August 21, 2017 (GMT -0700)
Ephrata Municipal

Weather History for KEPH - February, 2013

Change the Weather History Date:

Thursday, February 28, 2013

  Actual Average Record
Temperature  
Mean Temperature 41 °F 38 °F  
Max Temperature 45 °F 47 °F 62 °F (1967)
Min Temperature 37 °F 28 °F 4 °F (1993)
Degree Days  
Heating Degree Days 24 27  
Month to date heating degree days 797 864  
Since 1 July heating degree days 4233 4573  
Cooling Degree Days 0 0  
Month to date cooling degree days 0 0  
Year to date cooling degree days 0 0  
Moisture  
Dew Point 38 °F    
Average Humidity 83    
Maximum Humidity 96    
Minimum Humidity 70    
Precipitation  
Precipitation 0.16 in 0.03 in 0.61 in (2006)
Month to date precipitation 0.16 0.74  
Year to date precipitation 0.35 1.65  
Sea Level Pressure  
Sea Level Pressure 30.29 in    
Wind  
Wind Speed 3 mph (North)    
Max Wind Speed 10 mph    
Max Gust Speed 13 mph    
Visibility 9 miles    
Events Rain    
T = Trace of Precipitation, MM = Missing Value Source: NWS Daily Summary

Daily Weather History Graph

Daily Weather History Graph

Search for Another Location

Airport or City:

Trip Planner

Search our weather history database for the weather conditions in past years. The results will help you decide how hot, cold, wet, or windy it might be!

Date:

Astronomy

Feb. 28, 2013 Rise Set
Actual Time 6:39 AM PST 5:42 PM PST
Civil Twilight 6:08 AM PST 6:13 PM PST
Nautical Twilight 5:33 AM PST 6:48 PM PST
Astronomical Twilight 4:57 AM PST 7:24 PM PST
Moon 9:33 PM PST (2/28) 7:36 AM PST (2/28)
Length of Visible Light 12h 04m
Length of Day
11h 02m
Waning Gibbous, 90% of the Moon is Illuminated
Feb 28
Waning Gibbous
Mar 4
Last Quarter
Mar 11
New
Mar 19
First Quarter
Mar 27
Full

Hourly Weather History & Observations

Time (PST) Temp. Windchill Dew Point Humidity Pressure Visibility Wind Dir Wind Speed Gust Speed Precip Events Conditions
12:53 AM 37.9 °F 33.5 °F 30.9 °F 76% 30.25 in 10.0 mi NNE 5.8 mph - N/A   Overcast
1:53 AM 37.9 °F 34.4 °F 30.9 °F 76% 30.25 in 10.0 mi North 4.6 mph - N/A   Overcast
2:53 AM 37.9 °F 35.5 °F 30.0 °F 73% 30.25 in 10.0 mi NNE 3.5 mph - N/A   Overcast
4:53 AM 37.9 °F - 30.9 °F 76% 30.26 in 10.0 mi Calm Calm - N/A   Overcast
6:53 AM 37.9 °F - 33.1 °F 83% 30.30 in 10.0 mi Calm Calm - 0.00 in Rain Light Rain
7:30 AM 37.4 °F - 33.8 °F 87% 30.27 in 4.0 mi Calm Calm - 0.04 in Rain Rain
7:40 AM 37.4 °F - 33.8 °F 87% 30.27 in 9.0 mi Calm Calm - 0.04 in Rain Light Rain
7:53 AM 37.9 °F 35.5 °F 34.0 °F 86% 30.30 in 10.0 mi North 3.5 mph - 0.04 in Rain Light Rain
8:53 AM 39.9 °F 35.1 °F 36.0 °F 86% 30.31 in 10.0 mi North 6.9 mph - 0.01 in Rain Light Rain
9:27 AM 39.2 °F 33.6 °F 35.6 °F 87% 30.29 in 10.0 mi North 8.1 mph - 0.00 in Rain Light Rain
9:53 AM 39.9 °F 35.1 °F 37.0 °F 89% 30.32 in 8.0 mi NNE 6.9 mph - 0.01 in Rain Light Rain
10:53 AM 41.0 °F 37.1 °F 37.9 °F 89% 30.32 in 9.0 mi NNE 5.8 mph - 0.01 in Rain Light Rain
11:12 AM 41.0 °F 37.1 °F 39.2 °F 93% 30.29 in 7.0 mi North 5.8 mph - 0.01 in Rain Light Rain
11:46 AM 42.8 °F 40.1 °F 39.2 °F 87% 30.29 in 6.0 mi North 4.6 mph - 0.04 in Rain Light Rain
11:53 AM 42.1 °F 39.2 °F 39.0 °F 89% 30.32 in 7.0 mi North 4.6 mph - 0.04 in Rain Light Rain
12:53 PM 43.0 °F 41.3 °F 39.9 °F 89% 30.31 in 9.0 mi North 3.5 mph - 0.03 in Rain Light Rain
1:17 PM 44.6 °F - 41.0 °F 87% 30.28 in 9.0 mi Calm Calm - 0.01 in Rain Light Rain
1:50 PM 44.6 °F - 39.2 °F 81% 30.27 in 10.0 mi Calm Calm - 0.02 in Rain Light Rain
1:53 PM 44.1 °F - 39.9 °F 85% 30.30 in 10.0 mi Calm Calm - 0.02 in Rain Light Rain
2:09 PM 44.6 °F - 41.0 °F 87% 30.27 in 10.0 mi Calm Calm - 0.00 in Rain Light Rain
2:12 PM 44.6 °F - 41.0 °F 87% 30.27 in 10.0 mi Calm Calm - 0.00 in Rain Light Rain
2:49 PM 44.6 °F - 39.2 °F 81% 30.27 in 10.0 mi Calm Calm - 0.00 in   Overcast
2:53 PM 45.0 °F - 39.9 °F 82% 30.30 in 10.0 mi Calm Calm - 0.00 in   Overcast
3:32 PM 44.6 °F 43.1 °F 41.0 °F 87% 30.27 in 10.0 mi South 3.5 mph - N/A   Overcast
3:47 PM 44.6 °F - 41.0 °F 87% 30.28 in 10.0 mi Calm Calm - N/A   Overcast
3:53 PM 45.0 °F - 42.1 °F 90% 30.30 in 10.0 mi Calm Calm - N/A   Overcast
4:53 PM 44.1 °F 42.5 °F 41.0 °F 89% 30.31 in 10.0 mi SSW 3.5 mph - N/A   Overcast
5:53 PM 44.1 °F 42.5 °F 41.0 °F 89% 30.32 in 10.0 mi SW 3.5 mph - N/A   Overcast
6:05 PM 44.6 °F - 41.0 °F 87% 30.29 in 10.0 mi Calm Calm - N/A   Overcast
6:53 PM 43.0 °F 40.3 °F 41.0 °F 93% 30.31 in 10.0 mi South 4.6 mph - N/A   Overcast
7:53 PM 43.0 °F 41.3 °F 41.0 °F 93% 30.32 in 10.0 mi SW 3.5 mph - N/A   Overcast
8:53 PM 42.1 °F 39.2 °F 39.9 °F 92% 30.33 in 8.0 mi South 4.6 mph - N/A   Overcast
9:11 PM 42.8 °F - 39.2 °F 87% 30.30 in 8.0 mi Calm Calm - N/A   Overcast
9:53 PM 42.1 °F - 39.9 °F 92% 30.32 in 6.0 mi Calm Calm - N/A   Overcast
10:33 PM 42.8 °F - 39.2 °F 87% 30.29 in 6.0 mi Calm Calm - N/A   Overcast
10:53 PM 42.1 °F - 39.9 °F 92% 30.33 in 7.0 mi Calm Calm - N/A   Overcast
11:53 PM 39.9 °F - 39.0 °F 97% 30.33 in 4.0 mi Calm Calm - N/A   Mostly Cloudy